This is the latest recevied weather packets stored in our database for station/object 4S6DRJ-13. If no packets are shown the sender has not sent any weather packets the latest 10 day(s).
| Time | Temp. | Humidity | Pressure | Rain* | Wind** | Luminosity | Snow |
|---|---|---|---|---|---|---|---|
| 1788063310 | 30.56° C | 73% | 1010.8 hPa | 0 mm | 1.34 m/s, 153° | 825 W/m² | - |
| 1788063249 | 30.56° C | 73% | 1011 hPa | 0 mm | 1.79 m/s, 174° | 839 W/m² | - |
| 1788063188 | 30.56° C | 72% | 1010.9 hPa | 0 mm | 2.68 m/s, 228° | 838 W/m² | - |
| 1788063127 | 30.56° C | 73% | 1011.1 hPa | 0 mm | 1.79 m/s, 213° | 371 W/m² | - |
| 1788063066 | 30.56° C | 74% | 1011.1 hPa | 0 mm | 1.79 m/s, 281° | 883 W/m² | - |
| 1788063005 | 30.56° C | 74% | 1011.1 hPa | 0 mm | 1.34 m/s, 257° | 875 W/m² | - |
| 1788062944 | 30.56° C | 73% | 1011 hPa | 0 mm | 0.89 m/s, 188° | 842 W/m² | - |
| 1788062883 | 30.56° C | 72% | 1010.9 hPa | 0 mm | 3.13 m/s, 264° | 728 W/m² | - |
| 1788062822 | 30.56° C | 72% | 1011.1 hPa | 0 mm | 3.58 m/s, 252° | 748 W/m² | - |
| 1788062761 | 30.56° C | 73% | 1010.9 hPa | 0 mm | 0.89 m/s, 220° | 871 W/m² | - |
| 1788062700 | 30.56° C | 72% | 1011.1 hPa | 0 mm | 1.34 m/s, 216° | 440 W/m² | - |
| 1788062640 | 30.56° C | 72% | 1011.1 hPa | 0 mm | 1.34 m/s, 267° | 438 W/m² | - |
| 1788062578 | 30.56° C | 73% | 1011 hPa | 0 mm | 1.79 m/s, 247° | 413 W/m² | - |
| 1788062517 | 30.56° C | 73% | 1010.9 hPa | 0 mm | 0.89 m/s, 211° | 849 W/m² | - |
| 1788062456 | 30° C | 73% | 1011 hPa | 0 mm | 0.89 m/s, 199° | 830 W/m² | - |
| 1788062395 | 30° C | 73% | 1011 hPa | 0 mm | 0.89 m/s, 254° | 790 W/m² | - |
| 1788062334 | 30° C | 74% | 1011 hPa | 0 mm | 0 m/s | 795 W/m² | - |
| 1788062273 | 30° C | 74% | 1010.9 hPa | 0 mm | 0.89 m/s, 14° | 788 W/m² | - |
| 1788062212 | 30° C | 73% | 1011 hPa | 0 mm | 1.79 m/s, 208° | 729 W/m² | - |
| 1788062151 | 30.56° C | 73% | 1010.9 hPa | 0 mm | 3.13 m/s, 260° | 745 W/m² | - |
| 1788062090 | 30.56° C | 74% | 1010.9 hPa | 0 mm | 1.79 m/s, 91° | 648 W/m² | - |
| 1788062029 | 30.56° C | 75% | 1011 hPa | 0 mm | 1.34 m/s, 252° | 352 W/m² | - |
| 1788061968 | 30° C | 74% | 1011 hPa | 0 mm | 0.89 m/s, 278° | 446 W/m² | - |
| 1788061907 | 30° C | 75% | 1010.9 hPa | 0 mm | 0.45 m/s, 213° | 319 W/m² | - |
| 1788061846 | 30° C | 74% | 1010.9 hPa | 0 mm | 1.34 m/s, 241° | 611 W/m² | - |
* Rain latest hour (hover to see other rain measurements)
** Current wind speed in m/s (hover to see current wind gust speed)